Regional Weather Roundup
Issued by NWS

Home | Current Version | Previous Version | Graphics & Text | Print | Product List | Glossary On
Versions: 1 2 3 4 5 6 7 8 9 10 11 12 13 14 15 16 17 18 19 20 21 22 23 24 25 26 27 28 29 30 31 32 33 34 35 36 37 38 39 40 41 42 43 44 45 46 47 48 49 50
000
ASUS44 KMEG 261810
RWRTN
TENNESSEE HOURLY STATE WEATHER ROUNDUP
NATIONAL WEATHER SERVICE MEMPHIS TN
1200 PM CST THU FEB 26 2015

TNZ002-004-019-021-049-052-054-088>092-261900-
WEST TENNESSEE

CITY           SKY/WX    TMP DP  RH WIND       PRES   REMARKS
MEMPHIS INTL   CLOUDY    40  31  70 NW12      30.13S WCI  33
NWS MEMPHIS      N/A     42 N/A N/A MISG        N/A
JACKSON        CLOUDY    41  24  51 NW14      30.09R
DYERSBURG      CLOUDY    36  18  48 N12       30.15R WCI  27
UNION CITY     CLOUDY    32  25  74 N10       30.10S WCI  24
PARIS          CLOUDY    36  21  55 N10       30.09R WCI  28
LEXINGTON      SUNNY     43  21  42 NW10      30.05R
SAVANNAH       MOSUNNY   39  28  65 VRB6      30.08R WCI  35
$$

TNZ008-025-027-028-033-062-065-066-261900-
NORTH MIDDLE TENNESSEE

CITY           SKY/WX    TMP DP  RH WIND       PRES   REMARKS
NASHVILLE      PTSUNNY   43  25  49 N8        30.04S
CLARKSVILLE    CLOUDY    37  25  61 N9        30.07R WCI  30
SMYRNA         MOSUNNY   42  27  55 NW8       30.04F
COOKEVILLE     MOSUNNY   36  28  75 N5        29.99S WCI  32
CROSSVILLE     CLOUDY    32  25  75 N9        29.95F WCI  24
$$

TNZ061-075-076-078-094-096-097-261900-
SOUTH MIDDLE TENNESSEE

CITY           SKY/WX    TMP DP  RH WIND       PRES   REMARKS
FAYETTEVILLE   MOSUNNY   34  27  75 N6          N/A  WCI  29
TULLAHOMA      PTSUNNY   34  27  75 N7        30.01R WCI  28
WINCHESTER     MOSUNNY   34  27  75 N8        30.01F WCI  27
MCMINNVILLE    MOSUNNY   36  27  69 N7        30.00S WCI  30
COLUMBIA         N/A     41  30  65 VRB5      30.02S
SHELBYVILLE    MOSUNNY   39  30  70 N12       30.02F WCI  32
$$

TNZ017-018-042-046-047-261900-
NORTHEAST TENNESSEE

CITY           SKY/WX    TMP DP  RH WIND       PRES   REMARKS
TRI CITIES     CLOUDY    34  30  85 W10       29.91S WCI  26
ELIZABETHTON   CLOUDY    32  28  86 VRB3      29.89F
$$

TNZ012-013-036-069-073-074-261900-
CENTRAL EAST TENNESSEE

CITY           SKY/WX    TMP DP  RH WIND       PRES   REMARKS
KNOXVILLE      CLOUDY    36  30  79 NW3       29.96S
OAK RIDGE      CLOUDY    40  30  67 N7        29.98R
GATLINBURG     CLOUDY    34  28  80 W5        29.95S WCI  30
MORRISTOWN       N/A     36  30  80 NW5       29.93S WCI  32
$$

TNZ083-085-099-261900-
SOUTHEAST TENNESSEE

CITY           SKY/WX    TMP DP  RH WIND       PRES   REMARKS
CHATTANOOGA    CLOUDY    38  29  70 N15       29.99R WCI  29
$$

SKY/WX REPORTED AS FAIR MEANS FEW OR NO CLOUDS BELOW
12 THOUSAND FEET.




USA.gov is the U.S. government's official web portal to all federal, state and local government web resources and services.